SCP
-0 0 0 0 0 0 0 0 0 0 0 0 -0 -0 -0 -0 -0 -0 -0 -0 -0 -0 -0 -0 -0 -0 -0 -0 -0 -0 -0 -0 -0 -0 -0 0 -0 -0 -0 -0 -0 0 -0 0
0 -0 -0 0 0 0 0 0 0 0 0 0 0 -0 0 -0 0 0 0 -0 -0 -0 -0 -0 -0 0 -0 -0 -0 -0 -0 -0 0 -0 0 -0 -0 -0 -0 -0 0 -0 -0 -0
-0 0 -0 0 -0 -0 -0 -0 -0 0 0 0 0 -0 -0 -0 0 0 0 -0 -0 -0 -0 -0 -0 0 0 -0 -0 -0 -0 0 -0 -0 -0 0 0 0 -0 -0 0 -0 -0 -0
-0 0 0 0 0 -0 -0 -0 0 0 -0 0 0 -0 0 -0 0 0 0 0 -0 -0 -0 -0 -0 -0 0 0 0 0 0 0 -0 -0 -0 0 0 -0 0 0 -0 0 -0 -0
0 0 0 0 -0 -0 -0 0 0 0 0 0 0 -0 -0 0 -0 0 0 0 -0 -0 -0 -0 -0 -0 0 0 0 0 0 0 0 0 0 0 -0 -0 -0 -0 0 0 -0 -0
0 0 0 0 0 0 0 0 0 0 0 0 -0 -0 -0 -0 -0 -0 0 -0 0 -0 -0 -0 -0 0 0 0 0 0 0 0 0 0 0 0 0 -0 -0 0 0 0 0 -0
0 0 0 0 0 0 0 -0 0 0 0 0 -0 -0 -0 -0 0 0 0 0 0 -0 -0 -0 -0 0 0 -0 -0 -0 0 0 0 0 0 0 0 0 -0 0 0 0 0 0
0 0 -0 0 0 0 0 -0 -0 0 0 0 -0 -0 -0 -0 0 0 0 0 0 0 0 0 -0 0 0 0 0 -0 -0 -0 -0 0 -0 0 0 0 0 0 0 0 0 0
0 0 0 0 0 0 0 -0 -0 0 -0 0 0 -0 0 0 0 0 0 0 0 0 0 0 0 0 0 0 0 0 0 0 0 -0 0 -0 -0 -0 0 0 0 0 0 -0
0 0 0 -0 0 0 0 0 0 -0 0 -0 -0 0 0 -0 0 0 0 0 -0 0 -0 0 0 0 0 0 0 -0 -0 -0 -1 -1 -0 -0 -0 -0 0 1 1 0 0 0
0 0 0 0 0 0 0 0 0 0 0 -0 0 0 -0 0 -0 0 -0 -0 -0 -0 -0 0 0 0 0 0 0 -0 -0 -0 -0 -0 -0 -0 -0 -0 0 0 1 1 1 1
0 0 0 0 0 0 0 0 0 0 -0 -0 0 0 0 0 0 0 -0 -0 -0 0 0 0 0 0 0 0 0 0 0 -0 -0 -0 -0 -1 -1 -1 -2 -1 -0 0 1 1
0 0 0 0 0 0 0 0 0 0 0 0 0 0 0 0 0 0 0 -0 -0 0 0 0 0 0 0 0 0 0 -0 -0 -0 -0 -0 0 -1 -1 -2 -2 -1 -1 -0 0
0 0 0 0 0 0 0 0 0 0 0 0 0 0 0 0 0 0 0 0 0 0 0 0 0 0 0 0 0 0 0 -0 -0 -0 -0 -0 -0 -1 -1 -1 -1 -1 -1 -1
0 0 0 0 0 0 0 0 0 0 0 0 0 0 0 0 0 0 0 0 0 0 0 0 0 0 0 0 1 1 0 0 0 -0 -1 -1 -1 0 -0 -1 -1 -1 -1 -0
0 0 0 0 0 0 0 0 0 0 0 0 0 0 0 0 0 0 0 0 0 0 0 0 0 0 0 0 1 1 1 0 1 -0 -1 -1 -1 -0 -0 -0 0 0 -1 -1
0 0 0 0 0 0 0 0 0 0 0 0 0 0 0 0 0 0 0 0 0 0 0 0 0 0 0 0 0 1 1 1 0 0 0 -0 -0 -1 -0 0 1 0 -1 0
0 0 0 0 0 0 0 0 0 0 0 0 0 0 0 0 0 0 0 0 0 0 0 0 0 0 0 0 0 1 0 1 1 1 1 0 0 -0 -0 -0 0 1 2 1
0 0 0 0 0 0 0 0 0 0 0 0 0 0 0 0 0 0 0 0 0 0 0 0 0 0 0 0 0 0 1 1 1 1 2 1 2 2 2 0 1 2 3 2
0 0 0 0 0 0 0 0 0 0 0 0 0 0 0 0 0 0 0 0 0 0 0 0 0 0 0 0 0 0 0 1 2 2 3 3 3 3 2 1 1 3 3 3
0 0 0 0 0 0 0 0 0 0 0 0 0 0 0 0 0 0 0 0 0 0 0 0 0 0 0 0 0 1 1 1 2 2 3 4 3 4 3 2 3 2 2 2
-0 0 0 0 0 0 0 0 0 0 0 0 0 0 0 0 0 0 0 0 0 0 0 0 0 0 0 0 1 2 2 1 5 4 4 4 4 3 2 3 3 3 3 3
0 0 0 0 0 0 0 0 0 0 0 0 0 0 0 0 0 0 0 0 0 0 0 0 0 1 1 1 2 2 2 3 3 3 3 4 4 4 3 3 4 3 3 2
0 0 0 0 0 0 0 0 0 0 0 0 0 0 0 0 0 0 0 0 0 0 1 0 1 1 1 1 2 2 2 3 3 4 4 4 5 5 4 4 3 3 3 3
0 0 0 0 0 0 0 0 0 0 0 0 0 0 0 0 0 0 0 0 0 0 2 1 1 1 1 2 2 2 2 2 2 2 2 4 4 4 5 6 5 4 6 3
0 0 0 0 0 0 0 0 0 0 0 0 0 0 0 0 0 0 0 0 -0 0 2 3 3 3 3 2 4 5 2 2 2 2 2 2 3 4 4 4 2 0 0 0
Wind_Speed_500mb
57 39 52 59 56 50 44 44 51 45 32 40 38 37 40 46 44 40 53 54 59 60 60 62 62 61 59 57 57 57 56 55 51 46 41 40 38 34 32 30 31 30 27 22
36 59 54 51 53 56 54 48 45 45 30 27 38 41 36 33 43 41 46 55 57 57 59 64 66 66 65 63 63 62 62 61 63 48 46 41 39 35 33 31 34 34 26 27
55 40 55 53 50 53 54 54 42 37 39 38 29 37 36 40 35 47 41 56 56 63 66 68 70 71 69 68 69 67 68 66 65 53 47 44 40 40 36 35 34 32 30 27
59 49 58 54 56 52 53 52 46 38 38 34 45 32 39 37 39 37 47 55 61 64 68 70 73 73 75 74 70 69 71 72 67 68 49 52 47 42 41 35 33 33 34 31
61 48 44 58 50 53 49 42 47 43 36 34 39 37 36 51 47 45 42 52 61 65 71 73 75 75 76 72 71 71 73 72 69 69 67 54 56 44 34 36 36 41 37 34
57 48 46 41 51 44 43 39 42 45 37 39 49 40 36 32 50 53 49 55 55 65 69 73 72 70 71 71 70 68 72 73 72 69 70 68 57 54 43 40 38 36 35 37
55 63 46 46 46 46 40 39 26 32 37 34 49 46 38 36 38 37 38 57 56 60 69 73 73 73 73 76 74 71 74 77 75 74 71 76 73 61 57 50 42 38 37 34
44 48 68 44 56 49 54 50 32 43 37 37 48 53 47 50 27 35 56 54 59 60 69 72 74 77 78 82 85 83 82 84 83 82 80 73 76 64 61 58 45 42 39 35
51 61 66 61 51 55 45 54 53 46 46 31 40 48 52 45 54 41 35 56 63 65 67 72 76 78 77 82 89 92 87 88 89 89 86 84 79 78 69 63 61 50 44 39
56 37 61 65 49 57 55 48 46 36 44 41 32 32 34 43 37 51 50 39 59 65 65 72 76 78 79 81 92 96 97 94 94 91 92 91 89 85 83 72 70 58 58 52
64 46 34 53 56 56 51 44 53 42 35 30 24 19 36 38 45 43 42 70 58 60 68 72 71 78 82 81 79 90 96 102 95 94 94 95 94 91 86 87 85 74 66 61
74 26 42 62 57 53 54 57 57 35 48 37 24 3 22 20 17 35 47 53 67 61 65 65 71 67 73 78 78 82 87 90 100 95 94 98 96 93 93 92 91 87 81 76
11 29 33 46 50 51 62 62 51 55 38 41 32 12 16 12 3 32 37 50 55 56 56 60 62 66 68 74 81 82 83 84 81 85 86 93 98 98 98 94 90 88 83 81
19 33 48 38 51 47 58 63 61 51 39 36 40 31 23 11 14 11 14 32 45 43 44 46 57 65 65 64 73 81 81 78 78 78 81 85 95 98 96 94 93 90 88 85
13 30 41 51 26 22 59 63 62 62 49 50 30 39 28 27 26 26 27 19 11 12 11 18 27 30 34 52 63 73 80 77 77 83 85 91 92 93 92 93 91 90 92 92
17 24 39 44 36 15 26 43 62 57 56 46 47 31 34 25 21 17 19 18 12 12 23 20 27 36 41 54 58 63 73 82 76 81 92 88 87 88 94 94 95 93 92 95
24 19 21 31 36 23 34 42 37 51 52 49 43 38 23 19 16 9 14 14 12 16 17 22 25 25 34 38 48 55 62 67 78 86 79 88 89 93 92 92 95 101 104 97
24 20 17 21 33 43 26 35 32 27 29 29 26 18 19 15 17 26 25 24 27 27 25 23 26 30 28 33 40 43 42 57 71 79 91 82 89 88 90 90 93 88 84 91
26 21 13 20 29 15 41 27 35 46 38 31 28 26 19 22 21 26 25 27 30 35 36 31 33 37 35 33 37 39 35 45 57 73 86 92 81 87 89 91 82 77 78 78
29 24 22 16 28 38 15 21 2 3 20 30 42 34 30 23 22 24 29 27 23 20 22 23 26 39 37 33 41 40 39 50 63 67 70 74 78 82 88 85 83 79 78 78
23 24 28 26 18 22 11 17 11 22 9 20 7 12 22 14 15 27 23 23 25 29 33 35 33 29 32 38 46 45 49 56 60 53 56 66 74 78 80 77 75 73 73 64
23 27 25 27 35 40 23 3 13 15 12 20 23 26 18 16 22 30 34 34 34 37 39 38 40 43 41 39 41 52 60 59 62 58 58 62 68 69 64 74 70 69 67 68
23 22 20 24 26 17 24 29 29 12 11 19 22 22 24 28 32 36 36 38 41 42 42 38 39 40 34 32 35 44 54 49 58 58 64 64 64 64 64 65 68 60 61 57
25 23 26 31 34 32 38 30 31 31 34 37 37 36 38 44 43 45 41 42 45 46 46 39 33 32 30 27 31 42 40 42 51 58 59 57 60 61 64 50 48 49 49 52
31 32 34 40 44 53 58 51 47 47 51 54 55 52 51 48 47 46 49 48 49 52 49 30 28 30 26 26 24 25 28 34 40 43 41 46 44 47 45 46 47 43 43 52
41 41 33 36 48 45 45 49 53 58 62 66 61 56 55 59 60 55 56 52 48 50 34 33 29 21 27 34 26 18 22 29 34 35 36 37 38 39 41 49 51 54 53 54
Wind_Direction_500mb
199 201 213 211 218 223 235 212 230 202 185 199 222 221 187 171 187 199 178 190 193 193 191 193 195 195 197 198 198 200 199 203 203 202 206 206 211 215 214 214 215 221 220 228
188 217 213 218 213 223 234 242 215 231 200 202 209 222 205 244 184 199 193 189 196 191 189 194 196 196 198 199 201 203 202 204 205 207 206 210 213 217 219 219 221 219 225 235
204 214 216 209 216 214 225 232 232 221 218 215 226 228 223 225 208 188 210 188 197 194 191 193 196 199 199 200 201 204 207 205 211 201 211 211 212 215 221 220 221 225 225 223
220 223 195 212 216 213 220 222 236 237 232 211 205 233 212 218 201 197 200 195 192 198 195 193 196 198 201 202 203 205 212 210 213 209 207 212 213 215 217 219 217 221 223 217
210 215 195 209 210 214 227 213 222 237 242 249 233 220 238 198 211 198 205 202 194 197 196 195 196 198 201 202 203 205 212 213 207 215 205 215 215 218 218 214 216 221 228 223
225 211 222 214 213 213 214 229 221 220 234 238 231 239 220 225 204 208 190 206 200 194 197 199 197 196 199 201 203 204 208 215 213 214 219 206 219 209 213 214 215 218 221 229
213 226 212 224 208 200 207 207 206 217 216 226 226 232 234 230 220 203 209 197 199 196 196 197 194 194 195 199 202 204 209 217 215 212 219 214 212 220 208 211 215 217 222 224
211 214 220 199 214 198 206 209 214 210 216 222 228 230 226 236 246 229 199 208 198 193 198 197 198 196 196 197 200 202 207 217 220 218 221 222 221 218 217 215 213 220 219 226
203 224 193 213 210 212 195 215 217 239 215 234 215 218 238 229 223 219 240 203 198 190 197 196 198 200 198 197 200 203 205 214 222 221 222 225 225 222 217 216 223 214 222 221
243 216 221 199 206 215 226 205 216 229 248 224 233 242 208 209 223 213 207 211 216 186 193 199 199 200 201 202 202 204 207 212 224 222 224 226 228 228 225 221 220 221 218 221
238 249 239 206 203 198 206 211 212 228 231 241 241 240 222 202 202 216 217 211 213 207 190 198 201 201 203 204 205 207 208 211 215 225 224 226 229 231 231 228 231 229 229 220
215 233 237 202 199 211 208 216 200 221 215 237 262 117 32 159 208 190 215 210 209 203 195 197 198 201 203 206 208 209 211 213 216 223 224 227 231 233 234 234 230 234 234 236
190 225 220 238 190 198 220 208 218 211 232 211 227 172 121 117 279 190 195 212 205 202 198 194 197 198 206 206 208 210 212 216 217 218 220 222 228 230 233 235 234 232 234 236
299 244 226 217 198 192 207 216 212 217 217 221 209 231 121 104 156 138 187 193 194 199 199 202 200 198 202 207 207 210 215 217 218 218 219 221 224 229 232 233 236 235 234 235
268 239 236 250 255 218 198 216 213 217 215 223 204 208 167 135 129 143 139 128 126 152 209 227 239 236 209 202 207 211 216 216 216 217 219 222 227 228 226 229 232 235 235 237
309 267 251 250 243 228 261 230 219 213 223 221 231 228 190 168 145 151 162 183 171 200 181 195 216 222 226 218 210 214 216 216 216 217 217 220 222 226 228 228 230 231 234 235
303 270 235 231 235 229 238 232 237 224 212 224 222 227 230 168 181 200 230 260 240 227 233 246 243 224 224 215 216 217 216 217 216 220 219 218 220 225 228 228 228 233 233 233
270 290 278 236 230 225 235 206 233 248 255 239 240 250 250 263 260 248 244 253 261 259 261 260 246 226 218 219 213 216 215 220 220 220 221 220 219 221 226 229 229 227 226 230
235 260 257 247 228 207 220 228 209 212 223 228 235 233 243 255 260 260 256 259 269 277 277 270 248 234 234 229 211 215 217 220 225 227 225 222 218 218 223 230 224 225 228 229
215 217 260 254 247 218 170 75 117 72 218 222 218 228 235 227 232 232 250 266 291 305 297 318 278 256 255 248 242 236 230 226 229 246 229 224 217 219 223 226 230 232 234 235
200 217 222 235 254 244 347 89 215 185 78 5 278 183 226 209 342 338 327 323 320 310 297 287 285 281 268 256 251 252 235 229 252 229 225 223 219 218 225 228 229 230 230 221
211 198 219 229 236 239 273 23 228 44 52 18 10 11 357 329 317 315 318 318 314 311 305 287 277 274 270 266 250 239 236 234 237 228 221 220 219 217 218 220 224 223 224 226
249 256 233 229 224 242 275 296 270 4 324 312 322 312 312 304 304 300 305 310 310 313 311 296 279 277 271 260 239 235 238 230 229 226 217 213 214 216 206 221 215 216 222 220
263 259 267 270 265 273 285 289 278 295 289 288 291 286 289 288 289 294 300 305 307 309 307 297 278 274 270 259 250 248 235 225 224 219 212 205 206 210 204 212 211 211 216 222
282 295 272 261 258 274 275 272 274 277 280 282 280 283 289 292 291 292 297 302 302 304 304 290 281 271 265 257 258 249 232 216 209 208 204 202 202 202 201 197 204 209 213 219
268 266 258 259 265 266 260 258 258 259 262 272 279 285 285 287 286 288 291 295 298 297 287 288 285 264 241 244 224 208 212 198 194 195 194 197 192 194 191 204 207 203 212 217
Wind_Speed_850mb
57 39 52 59 56 50 44 44 51 45 32 40 38 37 40 46 44 40 53 54 59 60 60 62 62 61 59 57 57 57 56 55 51 46 41 40 38 34 32 30 31 30 27 22
36 59 54 51 53 56 54 48 45 45 30 27 38 41 36 33 43 41 46 55 57 57 59 64 66 66 65 63 63 62 62 61 63 48 46 41 39 35 33 31 34 34 26 27
55 40 55 53 50 53 54 54 42 37 39 38 29 37 36 40 35 47 41 56 56 63 66 68 70 71 69 68 69 67 68 66 65 53 47 44 40 40 36 35 34 32 30 27
59 49 58 54 56 52 53 52 46 38 38 34 45 32 39 37 39 37 47 55 61 64 68 70 73 73 75 74 70 69 71 72 67 68 49 52 47 42 41 35 33 33 34 31
61 48 44 58 50 53 49 42 47 43 36 34 39 37 36 51 47 45 42 52 61 65 71 73 75 75 76 72 71 71 73 72 69 69 67 54 56 44 34 36 36 41 37 34
57 48 46 41 51 44 43 39 42 45 37 39 49 40 36 32 50 53 49 55 55 65 69 73 72 70 71 71 70 68 72 73 72 69 70 68 57 54 43 40 38 36 35 37
55 63 46 46 46 46 40 39 26 32 37 34 49 46 38 36 38 37 38 57 56 60 69 73 73 73 73 76 74 71 74 77 75 74 71 76 73 61 57 50 42 38 37 34
44 48 68 44 56 49 54 50 32 43 37 37 48 53 47 50 27 35 56 54 59 60 69 72 74 77 78 82 85 83 82 84 83 82 80 73 76 64 61 58 45 42 39 35
51 61 66 61 51 55 45 54 53 46 46 31 40 48 52 45 54 41 35 56 63 65 67 72 76 78 77 82 89 92 87 88 89 89 86 84 79 78 69 63 61 50 44 39
56 37 61 65 49 57 55 48 46 36 44 41 32 32 34 43 37 51 50 39 59 65 65 72 76 78 79 81 92 96 97 94 94 91 92 91 89 85 83 72 70 58 58 52
64 46 34 53 56 56 51 44 53 42 35 30 24 19 36 38 45 43 42 70 58 60 68 72 71 78 82 81 79 90 96 102 95 94 94 95 94 91 86 87 85 74 66 61
74 26 42 62 57 53 54 57 57 35 48 37 24 3 22 20 17 35 47 53 67 61 65 65 71 67 73 78 78 82 87 90 100 95 94 98 96 93 93 92 91 87 81 76
11 29 33 46 50 51 62 62 51 55 38 41 32 12 16 12 3 32 37 50 55 56 56 60 62 66 68 74 81 82 83 84 81 85 86 93 98 98 98 94 90 88 83 81
19 33 48 38 51 47 58 63 61 51 39 36 40 31 23 11 14 11 14 32 45 43 44 46 57 65 65 64 73 81 81 78 78 78 81 85 95 98 96 94 93 90 88 85
13 30 41 51 26 22 59 63 62 62 49 50 30 39 28 27 26 26 27 19 11 12 11 18 27 30 34 52 63 73 80 77 77 83 85 91 92 93 92 93 91 90 92 92
17 24 39 44 36 15 26 43 62 57 56 46 47 31 34 25 21 17 19 18 12 12 23 20 27 36 41 54 58 63 73 82 76 81 92 88 87 88 94 94 95 93 92 95
24 19 21 31 36 23 34 42 37 51 52 49 43 38 23 19 16 9 14 14 12 16 17 22 25 25 34 38 48 55 62 67 78 86 79 88 89 93 92 92 95 101 104 97
24 20 17 21 33 43 26 35 32 27 29 29 26 18 19 15 17 26 25 24 27 27 25 23 26 30 28 33 40 43 42 57 71 79 91 82 89 88 90 90 93 88 84 91
26 21 13 20 29 15 41 27 35 46 38 31 28 26 19 22 21 26 25 27 30 35 36 31 33 37 35 33 37 39 35 45 57 73 86 92 81 87 89 91 82 77 78 78
29 24 22 16 28 38 15 21 2 3 20 30 42 34 30 23 22 24 29 27 23 20 22 23 26 39 37 33 41 40 39 50 63 67 70 74 78 82 88 85 83 79 78 78
23 24 28 26 18 22 11 17 11 22 9 20 7 12 22 14 15 27 23 23 25 29 33 35 33 29 32 38 46 45 49 56 60 53 56 66 74 78 80 77 75 73 73 64
23 27 25 27 35 40 23 3 13 15 12 20 23 26 18 16 22 30 34 34 34 37 39 38 40 43 41 39 41 52 60 59 62 58 58 62 68 69 64 74 70 69 67 68
23 22 20 24 26 17 24 29 29 12 11 19 22 22 24 28 32 36 36 38 41 42 42 38 39 40 34 32 35 44 54 49 58 58 64 64 64 64 64 65 68 60 61 57
25 23 26 31 34 32 38 30 31 31 34 37 37 36 38 44 43 45 41 42 45 46 46 39 33 32 30 27 31 42 40 42 51 58 59 57 60 61 64 50 48 49 49 52
31 32 34 40 44 53 58 51 47 47 51 54 55 52 51 48 47 46 49 48 49 52 49 30 28 30 26 26 24 25 28 34 40 43 41 46 44 47 45 46 47 43 43 52
41 41 33 36 48 45 45 49 53 58 62 66 61 56 55 59 60 55 56 52 48 50 34 33 29 21 27 34 26 18 22 29 34 35 36 37 38 39 41 49 51 54 53 54
Wind_Direction_850mb
199 201 213 211 218 223 235 212 230 202 185 199 222 221 187 171 187 199 178 190 193 193 191 193 195 195 197 198 198 200 199 203 203 202 206 206 211 215 214 214 215 221 220 228
188 217 213 218 213 223 234 242 215 231 200 202 209 222 205 244 184 199 193 189 196 191 189 194 196 196 198 199 201 203 202 204 205 207 206 210 213 217 219 219 221 219 225 235
204 214 216 209 216 214 225 232 232 221 218 215 226 228 223 225 208 188 210 188 197 194 191 193 196 199 199 200 201 204 207 205 211 201 211 211 212 215 221 220 221 225 225 223
220 223 195 212 216 213 220 222 236 237 232 211 205 233 212 218 201 197 200 195 192 198 195 193 196 198 201 202 203 205 212 210 213 209 207 212 213 215 217 219 217 221 223 217
210 215 195 209 210 214 227 213 222 237 242 249 233 220 238 198 211 198 205 202 194 197 196 195 196 198 201 202 203 205 212 213 207 215 205 215 215 218 218 214 216 221 228 223
225 211 222 214 213 213 214 229 221 220 234 238 231 239 220 225 204 208 190 206 200 194 197 199 197 196 199 201 203 204 208 215 213 214 219 206 219 209 213 214 215 218 221 229
213 226 212 224 208 200 207 207 206 217 216 226 226 232 234 230 220 203 209 197 199 196 196 197 194 194 195 199 202 204 209 217 215 212 219 214 212 220 208 211 215 217 222 224
211 214 220 199 214 198 206 209 214 210 216 222 228 230 226 236 246 229 199 208 198 193 198 197 198 196 196 197 200 202 207 217 220 218 221 222 221 218 217 215 213 220 219 226
203 224 193 213 210 212 195 215 217 239 215 234 215 218 238 229 223 219 240 203 198 190 197 196 198 200 198 197 200 203 205 214 222 221 222 225 225 222 217 216 223 214 222 221
243 216 221 199 206 215 226 205 216 229 248 224 233 242 208 209 223 213 207 211 216 186 193 199 199 200 201 202 202 204 207 212 224 222 224 226 228 228 225 221 220 221 218 221
238 249 239 206 203 198 206 211 212 228 231 241 241 240 222 202 202 216 217 211 213 207 190 198 201 201 203 204 205 207 208 211 215 225 224 226 229 231 231 228 231 229 229 220
215 233 237 202 199 211 208 216 200 221 215 237 262 117 32 159 208 190 215 210 209 203 195 197 198 201 203 206 208 209 211 213 216 223 224 227 231 233 234 234 230 234 234 236
190 225 220 238 190 198 220 208 218 211 232 211 227 172 121 117 279 190 195 212 205 202 198 194 197 198 206 206 208 210 212 216 217 218 220 222 228 230 233 235 234 232 234 236
299 244 226 217 198 192 207 216 212 217 217 221 209 231 121 104 156 138 187 193 194 199 199 202 200 198 202 207 207 210 215 217 218 218 219 221 224 229 232 233 236 235 234 235
268 239 236 250 255 218 198 216 213 217 215 223 204 208 167 135 129 143 139 128 126 152 209 227 239 236 209 202 207 211 216 216 216 217 219 222 227 228 226 229 232 235 235 237
309 267 251 250 243 228 261 230 219 213 223 221 231 228 190 168 145 151 162 183 171 200 181 195 216 222 226 218 210 214 216 216 216 217 217 220 222 226 228 228 230 231 234 235
303 270 235 231 235 229 238 232 237 224 212 224 222 227 230 168 181 200 230 260 240 227 233 246 243 224 224 215 216 217 216 217 216 220 219 218 220 225 228 228 228 233 233 233
270 290 278 236 230 225 235 206 233 248 255 239 240 250 250 263 260 248 244 253 261 259 261 260 246 226 218 219 213 216 215 220 220 220 221 220 219 221 226 229 229 227 226 230
235 260 257 247 228 207 220 228 209 212 223 228 235 233 243 255 260 260 256 259 269 277 277 270 248 234 234 229 211 215 217 220 225 227 225 222 218 218 223 230 224 225 228 229
215 217 260 254 247 218 170 75 117 72 218 222 218 228 235 227 232 232 250 266 291 305 297 318 278 256 255 248 242 236 230 226 229 246 229 224 217 219 223 226 230 232 234 235
200 217 222 235 254 244 347 89 215 185 78 5 278 183 226 209 342 338 327 323 320 310 297 287 285 281 268 256 251 252 235 229 252 229 225 223 219 218 225 228 229 230 230 221
211 198 219 229 236 239 273 23 228 44 52 18 10 11 357 329 317 315 318 318 314 311 305 287 277 274 270 266 250 239 236 234 237 228 221 220 219 217 218 220 224 223 224 226
249 256 233 229 224 242 275 296 270 4 324 312 322 312 312 304 304 300 305 310 310 313 311 296 279 277 271 260 239 235 238 230 229 226 217 213 214 216 206 221 215 216 222 220
263 259 267 270 265 273 285 289 278 295 289 288 291 286 289 288 289 294 300 305 307 309 307 297 278 274 270 259 250 248 235 225 224 219 212 205 206 210 204 212 211 211 216 222
282 295 272 261 258 274 275 272 274 277 280 282 280 283 289 292 291 292 297 302 302 304 304 290 281 271 265 257 258 249 232 216 209 208 204 202 202 202 201 197 204 209 213 219
268 266 258 259 265 266 260 258 258 259 262 272 279 285 285 287 286 288 291 295 298 297 287 288 285 264 241 244 224 208 212 198 194 195 194 197 192 194 191 204 207 203 212 217